TimeCDT,TemperatureF,Dew PointF,Humidity,Sea Level PressureIn,VisibilityMPH,Wind Direction,Wind SpeedMPH,Gust SpeedMPH,PrecipitationIn,Events,Conditions,WindDirDegrees,DateUTC
12:53 AM,28.0,24.1,85,29.87,10.0,North,12.7,-,N/A,,Overcast,350,2013-03-25 05:53:00
1:53 AM,28.0,24.1,85,29.88,10.0,North,10.4,-,N/A,,Overcast,350,2013-03-25 06:53:00
2:53 AM,28.0,24.1,85,29.88,10.0,North,11.5,-,N/A,,Overcast,350,2013-03-25 07:53:00
3:53 AM,28.9,19.9,69,29.87,10.0,North,17.3,21.9,N/A,,Overcast,10,2013-03-25 08:53:00
4:53 AM,28.0,19.0,69,29.88,10.0,NNE,16.1,-,N/A,,Mostly Cloudy,20,2013-03-25 09:53:00
5:53 AM,27.0,17.1,66,29.90,10.0,North,10.4,-,N/A,,Overcast,10,2013-03-25 10:53:00
6:53 AM,27.0,19.0,72,29.91,10.0,North,15.0,21.9,N/A,,Overcast,360,2013-03-25 11:53:00
7:53 AM,26.1,18.0,71,29.95,10.0,North,12.7,-,N/A,,Overcast,360,2013-03-25 12:53:00
8:32 AM,26.6,19.4,74,29.92,10.0,NNW,12.7,-,N/A,,Overcast,340,2013-03-25 13:32:00
8:53 AM,26.1,19.0,75,29.97,10.0,NNW,12.7,-,N/A,,Overcast,340,2013-03-25 13:53:00
9:53 AM,26.1,19.9,78,29.99,10.0,North,15.0,-,N/A,,Overcast,350,2013-03-25 14:53:00
10:53 AM,27.0,21.0,78,30.01,10.0,North,13.8,-,N/A,,Mostly Cloudy,350,2013-03-25 15:53:00
11:53 AM,30.0,21.9,72,30.02,10.0,NNW,13.8,-,N/A,,Mostly Cloudy,340,2013-03-25 16:53:00
12:53 PM,32.0,23.0,69,30.01,10.0,North,16.1,23.0,N/A,,Mostly Cloudy,350,2013-03-25 17:53:00
1:53 PM,33.1,23.0,66,30.01,10.0,North,18.4,-,N/A,,Mostly Cloudy,360,2013-03-25 18:53:00
2:53 PM,34.0,24.1,67,30.02,10.0,North,18.4,25.3,N/A,,Mostly Cloudy,360,2013-03-25 19:53:00
3:53 PM,34.0,24.1,67,30.03,10.0,North,15.0,-,N/A,,Mostly Cloudy,350,2013-03-25 20:53:00
3:59 PM,33.8,24.8,70,30.00,10.0,North,16.1,-,N/A,,Overcast,350,2013-03-25 20:59:00
4:53 PM,32.0,23.0,69,30.07,10.0,North,13.8,-,N/A,,Overcast,360,2013-03-25 21:53:00
5:53 PM,32.0,24.1,73,30.08,10.0,North,13.8,-,N/A,,Overcast,360,2013-03-25 22:53:00
6:53 PM,32.0,23.0,69,30.11,10.0,North,13.8,-,N/A,,Overcast,350,2013-03-25 23:53:00
7:53 PM,32.0,23.0,69,30.14,10.0,NNW,10.4,-,N/A,,Overcast,330,2013-03-26 00:53:00
8:53 PM,30.9,23.0,72,30.15,10.0,NNW,10.4,-,N/A,,Overcast,340,2013-03-26 01:53:00
9:53 PM,30.9,23.0,72,30.16,10.0,NNW,13.8,-,N/A,,Overcast,330,2013-03-26 02:53:00
10:53 PM,30.9,23.0,72,30.17,10.0,NNW,11.5,-,N/A,,Overcast,330,2013-03-26 03:53:00
11:53 PM,30.9,21.9,69,30.17,10.0,NNW,11.5,-,N/A,,Overcast,330,2013-03-26 04:53:00